Denver Centennial, CO

3:30 PM MDT on July 20, 2017 (GMT -0600)
Centennial

Weather History for KAPA - January, 2014

Change the Weather History Date:

Friday, January 17, 2014

  Actual Average Record
Temperature  
Mean Temperature 36 °F -  
Max Temperature 52 °F 43 °F 61 °F (2000)
Min Temperature 20 °F 20 °F 0 °F (2008)
Degree Days  
Heating Degree Days 29    
Month to date heating degree days 584  
Moisture  
Dew Point 12 °F    
Average Humidity 46    
Maximum Humidity 74    
Minimum Humidity 17    
Precipitation  
Precipitation 0.00 in - - ()
Month to date precipitation 0.19  
Year to date precipitation 0.19  
Sea Level Pressure  
Sea Level Pressure 30.14 in    
Wind  
Wind Speed 8 mph (West)    
Max Wind Speed 20 mph    
Max Gust Speed 24 mph    
Visibility 10 miles    
Events      
Averages and records for this station are not official NWS values.
T = Trace of Precipitation, MM = Missing Value Source: NWS Daily Summary

Daily Weather History Graph

Daily Weather History Graph

Search for Another Location

Airport or City:

Trip Planner

Search our weather history database for the weather conditions in past years. The results will help you decide how hot, cold, wet, or windy it might be!

Date:

Astronomy

Jan. 17, 2014 Rise Set
Actual Time 7:17 AM MST 5:02 PM MST
Civil Twilight 6:47 AM MST 5:31 PM MST
Nautical Twilight 6:14 AM MST 6:04 PM MST
Astronomical Twilight 5:42 AM MST 6:36 PM MST
Moon 6:50 PM MST (1/17) 7:47 AM MST (1/17)
Length of Visible Light 10h 43m
Length of Day
9h 44m
Full, 98% of the Moon is Illuminated
Jan 17
Full
Jan 23
Last Quarter
Jan 30
New
Feb 6
First Quarter
Feb 14
Full

Hourly Weather History & Observations

Time (MST) Temp. Windchill Dew Point Humidity Pressure Visibility Wind Dir Wind Speed Gust Speed Precip Events Conditions
12:53 AM 25.0 °F 16.3 °F 15.1 °F 66% 30.28 in 10.0 mi South 8.1 mph - N/A   Partly Cloudy
1:53 AM 23.0 °F 12.4 °F 15.1 °F 72% 30.27 in 10.0 mi SSE 10.4 mph - N/A   Partly Cloudy
2:53 AM 26.1 °F 16.8 °F 14.0 °F 60% 30.25 in 10.0 mi South 9.2 mph - N/A   Clear
3:53 AM 21.9 °F 13.4 °F 14.0 °F 72% 30.23 in 10.0 mi SSE 6.9 mph - N/A   Clear
4:53 AM 24.1 °F 17.0 °F 14.0 °F 65% 30.24 in 10.0 mi South 5.8 mph - N/A   Clear
5:53 AM 23.0 °F - 12.9 °F 65% 30.25 in 10.0 mi Calm Calm - N/A   Clear
6:53 AM 21.0 °F 16.2 °F 12.9 °F 71% 30.27 in 10.0 mi South 3.5 mph - N/A   Partly Cloudy
7:53 AM 28.0 °F 19.3 °F 14.0 °F 56% 30.24 in 10.0 mi WSW 9.2 mph - N/A   Partly Cloudy
8:53 AM 37.0 °F 31.0 °F 14.0 °F 39% 30.22 in 10.0 mi WSW 8.1 mph - N/A   Partly Cloudy
9:53 AM 43.0 °F 38.2 °F 12.0 °F 28% 30.20 in 10.0 mi West 8.1 mph - N/A   Partly Cloudy
10:53 AM 45.0 °F 41.2 °F 10.9 °F 25% 30.17 in 10.0 mi WSW 6.9 mph - N/A   Partly Cloudy
11:53 AM 48.0 °F - 10.0 °F 22% 30.11 in 10.0 mi West 6.9 mph - N/A   Partly Cloudy
12:53 PM 50.0 °F - 10.9 °F 21% 30.06 in 10.0 mi NNW 5.8 mph - N/A   Partly Cloudy
1:53 PM 52.0 °F - 10.0 °F 19% 30.04 in 10.0 mi NW 17.3 mph - N/A   Partly Cloudy
1:58 PM 52.0 °F - 10.0 °F 19% 30.02 in 10.0 mi NNW 16.1 mph - N/A   Partly Cloudy
2:00 PM 52.0 °F - 10.0 °F 19% 30.02 in 10.0 mi NNW 16.1 mph - N/A   Partly Cloudy
2:53 PM 52.0 °F - 9.0 °F 18% 30.04 in 10.0 mi NNW 17.3 mph - N/A   Partly Cloudy
3:53 PM 51.1 °F - 10.0 °F 19% 30.06 in 10.0 mi WNW 15.0 mph - N/A   Partly Cloudy
4:53 PM 46.9 °F - 10.0 °F 22% 30.07 in 10.0 mi NW 6.9 mph - N/A   Scattered Clouds
5:53 PM 44.1 °F 38.6 °F 10.9 °F 26% 30.10 in 10.0 mi WNW 10.4 mph - N/A   Scattered Clouds
6:53 PM 43.0 °F 36.4 °F 10.9 °F 27% 30.13 in 10.0 mi NW 12.7 mph - N/A   Partly Cloudy
7:53 PM 42.1 °F 35.7 °F 12.0 °F 29% 30.11 in 10.0 mi NW 11.5 mph - N/A   Partly Cloudy
8:53 PM 35.1 °F 29.3 °F 12.9 °F 40% 30.11 in 10.0 mi West 6.9 mph - N/A   Partly Cloudy
9:53 PM 37.0 °F - 12.0 °F 36% 30.08 in 10.0 mi Calm Calm - N/A   Partly Cloudy
10:53 PM 36.0 °F - 10.9 °F 36% 30.08 in 10.0 mi Calm Calm - N/A   Partly Cloudy
11:53 PM 37.0 °F - 10.0 °F 33% 30.07 in 10.0 mi Calm Calm - N/A   Partly Cloudy